This is the latest recevied weather packets stored in our database for station/object SP6FIG-13. If no packets are shown the sender has not sent any weather packets the latest 10 day(s).
| Time | Temp. | Humidity | Pressure | Rain* | Wind** | Luminosity | Snow |
|---|---|---|---|---|---|---|---|
| 1777801464 | 22.78° C | 30% | 1018 hPa | - | - | - | - |
| 1777801164 | 22.78° C | 28% | 1017.9 hPa | - | - | - | - |
| 1777800864 | 22.78° C | 27% | 1017.9 hPa | - | - | - | - |
| 1777800564 | 22.78° C | 28% | 1018.1 hPa | - | - | - | - |
| 1777800264 | 22.78° C | 28% | 1018 hPa | - | - | - | - |
| 1777799964 | 22.78° C | 28% | 1018 hPa | - | - | - | - |
| 1777799664 | 22.78° C | 28% | 1018.1 hPa | - | - | - | - |
| 1777799364 | 22.78° C | 28% | 1018.2 hPa | - | - | - | - |
| 1777799064 | 22.78° C | 27% | 1018.3 hPa | - | - | - | - |
| 1777798764 | 22.78° C | 27% | 1018.2 hPa | - | - | - | - |
| 1777798464 | 22.78° C | 28% | 1018.2 hPa | - | - | - | - |
| 1777798164 | 22.78° C | 26% | 1018 hPa | - | - | - | - |
| 1777797864 | 22.78° C | 28% | 1018.1 hPa | - | - | - | - |
| 1777797564 | 22.78° C | 29% | 1018.4 hPa | - | - | - | - |
| 1777797264 | 23.33° C | 28% | 1018.1 hPa | - | - | - | - |
| 1777796964 | 23.33° C | 29% | 1018.4 hPa | - | - | - | - |
| 1777796664 | 23.33° C | 31% | 1018.4 hPa | - | - | - | - |
| 1777796364 | 23.33° C | 33% | 1018 hPa | - | - | - | - |
| 1777796064 | 23.33° C | 32% | 1017.8 hPa | - | - | - | - |
| 1777795764 | 23.33° C | 31% | 1018.3 hPa | - | - | - | - |
| 1777795464 | 23.89° C | 28% | 1018.2 hPa | - | - | - | - |
| 1777795164 | 23.89° C | 29% | 1018 hPa | - | - | - | - |
| 1777794864 | 23.89° C | 29% | 1018 hPa | - | - | - | - |
| 1777794564 | 23.89° C | 29% | 1018.1 hPa | - | - | - | - |
| 1777794264 | 23.89° C | 29% | 1017.9 hPa | - | - | - | - |
* Rain since midnight (hover to see other rain measurements)
** Current wind speed in m/s (hover to see current wind gust speed)